Weather in Altynivka

Ukraine / Sumi District     51°27′13″N   33°11′24″E
temp.,
°C
wind,
m/s
gust,
m/s
humid.,
%
clouds,
%
prec.,
mm/h
press.,
hPa
HPBL,
m
21 october, thu
thu2100:00+11ssw91867100 0.0 1014639
03:00+10sw81667100 0.0 1014482
06:00+9ssw71672100 0.0 1012415
09:00+10ssw81771100 0.0 1011486
12:00+14sw91560100 0.0 1010600
15:00+15ssw81458100 0.0 1008748
18:00+13ssw81759100 0.0 1006695
21:00+13ssw91855100 0.0 1005683
22 october, fri
fri2200:00+12ssw81655100 0.0 1003476
03:00+12sw61457100 0.0 1004471
06:00+12sw6146597 0.0 1004504
09:00+12wsw8137014 0.0 1007922
12:00+14wsw914531 0.0 10091481
15:00+15wsw8144935 0.0 10092163
18:00+11w512475 0.0 1010369
21:00+9wsw514514 0.0 1011440
23 october, sat
sat2300:00+9sw6135385 0.0 1012566
03:00+9wsw6145810 0.0 1011603
06:00+7wsw614665 0.0 1011521
09:00+8wsw7126893 0.0 1012928
12:00+10w811497 0.0 10131437
15:00+9w71159100 0.3 10131468
18:00+6wnw410685 0.3 1016297
21:00+5w513767 0.3 1017628
24 october, sun
sun2400:00+3w4118254 0.0 1018425
03:00+5wsw61268100 0.0 1017527
06:00+6w6107884 0.1 1018893
09:00+4wnw61082100 0.1 1019900
12:00+5wnw71067100 0.1 10201176
15:00+4nw71172100 0.4 10211190
18:00+3nw7127998 0.1 10231051
21:00+2nnw7137389 0.2 1025921
25 october, mon
mon2500:00+1nnw6128146 0.0 1027605
03:00−1nnw5118773 0.0 1029444
06:00−2nnw410938 0.0 1031284
09:00−1n48835 0.0 1033324
12:00+4n45545 0.0 1034831
15:00+5n34455 0.0 10341019
18:00+2nne22580 0.0 103511
21:000ene22645 0.0 103610